CZ-6A DEB, 61097

Orbit data source: Space-Track

CZ-6A DEB, 61097 is space debris in LEO originally from a launch on Tue, 06 Aug 2024 UTC launched from the Taiyaun Space Center, China (TSC). Debris objects in space refer to the collection of defunct objects orbiting the Earth. Examples of debris include non-operational satellites, rocket bodies, and fragments generated from explosions, collisions, or faulty payload assembly.

Loading next visibility...
Identifier
61097, 2024-140NP
Orbit
LEO
Country
Flag of CNCN / PRC
Related business
Manufacturer
SAST
Mission
Spacecraft
Bus & Motor
Unknown
Mass
Unknown
Launch date (UTC)
2024-08-06 (2 years ago)
Launch vehicle
Unknown
Launch site
Taiyaun Space Center, China (TSC)
Object type
Payload
Rocket body
Debris
Shape & HBR
Unknown shape, 0.1 m
Radar Cross Section
Small (<0.1 m²)

Expand to show TLE details & history
Last TLE update: 14 hours ago

TLE from 14 hours ago
0 CZ-6A DEB
1 61097U 24140NP  26171.25474306  .00001030  00000-0  22842-3 0  9997
2 61097  89.0192 271.7656 0100061 267.5171  91.4579 14.53355085 95834
Epoch: 2026-06-20T06:06Z
TLE epoch observation values (Epoch: 2026-06-20T06:06:49.800Z)
Latitude
-0.00008°
Longitude
-88.4139°
Altitude
720.328 km
Speed
7.494 km/s
True Right ascension
18h 07m 03s
True Declination
0° 00' 00"
Sunlit
Object was in full shadow at epoch
Visualization orbit readout
Latitude
Unknown
Longitude
Unknown
Altitude
Unknown
Speed
Unknown
Apparent Right ascension
Unknown
Apparent Declination
Unknown
Sunlit
N/A
Visualization observer readout
Local Sidereal Time
07:23:03
Azimuth
Unknown
Elevation
Unknown
Doppler factor
Unknown
Orbital elements
Apogee altitude
782.555 km
Perigee altitude
640.674 km
Semi-major axis
7,089.752 km
Eccentricity
0.01001
Inclination
89.0192°
RAAN
271.7656°
Arg. of periapsis
267.5171°
True anomaly
92.6037°
Mean anomaly
91.4579°
Eccentric anomaly
92.03085°
Mean motion
3.63577 °/min
Orbital period
99.02 mins
BSTAR
0.00022842
Loading maneuver chart data...
Computing Atmospheric mass density...
Loading historical data...
Loading historical data...
Loading historical data...
Loading historical data...
Loading historical data...
Loading historical data...
Loading historical data...

Documentation

Showing up to 5 results
|